Ottumwa, IA

2:39 AM CDT on October 16, 2019 (GMT -0500)
Ottumwa Industrial

Weather History for KOTM - August, 2019

Change the Weather History Date:

Thursday, August 8, 2019

  Actual Average Record
Temperature  
Mean Temperature 76 °F 74 °F  
Max Temperature 85 °F 85 °F 115 °F (1934)
Min Temperature 67 °F 64 °F 48 °F (1903)
Degree Days  
Heating Degree Days 0 0  
Month to date heating degree days 0 0  
Since 1 June heating degree days 4 23  
Since 1 July heating degree days 0 2  
Cooling Degree Days 11 9  
Month to date cooling degree days 71 74  
Year to date cooling degree days 718 653  
Since 1 June cooling degree days 655 589  
Growing Degree Days 25 (Base 50)    
Moisture  
Dew Point 66 °F    
Average Humidity 76    
Maximum Humidity 93    
Minimum Humidity 59    
Precipitation  
Precipitation 0.06 in 0.15 in 2.00 in (1939)
Month to date precipitation 0.20 1.15  
Year to date precipitation 26.72 23.24  
Sea Level Pressure  
Sea Level Pressure 29.90 in    
Wind  
Wind Speed 6 mph (NNW)    
Max Wind Speed 13 mph    
Max Gust Speed 19 mph    
Visibility 10 miles    
Events Rain , Thunderstorm    
T = Trace of Precipitation, MM = Missing Value Source: NWS Daily Summary

Daily Weather History Graph

Daily Weather History Graph

Search for Another Location

Airport or City:

Astronomy

Aug. 08, 2019 Rise Set
Actual Time 6:12 AM CDT 8:18 PM CDT
Civil Twilight 5:41 AM CDT 8:48 PM CDT
Nautical Twilight 5:04 AM CDT 9:25 PM CDT
Astronomical Twilight 4:24 AM CDT 10:05 PM CDT
Moon 2:54 PM CDT (8/8) 12:34 AM CDT (8/8)
Length of Visible Light 15h 06m
Length of Day
14h 05m
First Quarter, 60% of the Moon is Illuminated
Aug 8
First Quarter
Aug 15
Full
Aug 23
Last Quarter
Aug 30
New
Sep 5
First Quarter

Hourly Weather History & Observations

Time (CDT) Temp. Heat Index Dew Point Humidity Pressure Visibility Wind Dir Wind Speed Gust Speed Precip Events Conditions
12:53 AM 70.0 °F - 66.9 °F 90% 29.85 in 10.0 mi West 5.8 mph - N/A   Clear
1:53 AM 70.0 °F - 66.9 °F 90% 29.85 in 10.0 mi West 6.9 mph - N/A   Clear
2:53 AM 70.0 °F - 66.0 °F 87% 29.83 in 10.0 mi WNW 4.6 mph - N/A   Clear
3:53 AM 68.0 °F - 66.0 °F 93% 29.83 in 10.0 mi Calm Calm - N/A   Clear
4:53 AM 66.9 °F - 64.9 °F 93% 29.85 in 10.0 mi Calm Calm - N/A   Clear
5:53 AM 68.0 °F - 66.0 °F 93% 29.87 in 10.0 mi NW 4.6 mph - N/A   Clear
6:53 AM 69.1 °F - 66.9 °F 93% 29.89 in 10.0 mi WNW 3.5 mph - N/A   Clear
7:53 AM 73.0 °F - 66.9 °F 81% 29.90 in 10.0 mi Calm Calm - N/A   Clear
8:53 AM 75.9 °F - 66.0 °F 71% 29.92 in 10.0 mi NE 4.6 mph - N/A   Clear
9:02 AM 75.9 °F - 66.0 °F 71% 29.94 in 10.0 mi NNE 5.8 mph - N/A Thunderstorm Clear
9:17 AM 73.0 °F - 66.9 °F 81% 29.94 in 3.0 mi NNE 5.8 mph - 0.06 in Rain Heavy Rain
9:53 AM 75.9 °F - 68.0 °F 76% 29.92 in 10.0 mi North 8.1 mph - 0.06 in   Scattered Clouds
10:53 AM 79.0 °F - 66.9 °F 66% 29.92 in 10.0 mi North 4.6 mph - N/A   Clear
11:53 AM 79.0 °F - 66.9 °F 66% 29.93 in 10.0 mi NNE 8.1 mph - N/A   Overcast
12:53 PM 78.1 °F - 66.9 °F 68% 29.94 in 10.0 mi NNE 8.1 mph - N/A   Mostly Cloudy
1:53 PM 81.0 °F 83.3 °F 66.9 °F 62% 29.93 in 10.0 mi North 8.1 mph - N/A   Clear
2:53 PM 84.0 °F 87.0 °F 68.0 °F 58% 29.91 in 10.0 mi North 5.8 mph - N/A   Clear
3:53 PM 84.0 °F 87.0 °F 68.0 °F 58% 29.90 in 10.0 mi NNE 11.5 mph - N/A   Clear
4:53 PM 84.0 °F 87.0 °F 68.0 °F 58% 29.89 in 10.0 mi NNW 10.4 mph - N/A   Partly Cloudy
5:53 PM 82.9 °F 85.8 °F 68.0 °F 60% 29.90 in 10.0 mi NW 6.9 mph - N/A   Partly Cloudy
6:53 PM 81.0 °F 83.3 °F 66.9 °F 62% 29.90 in 10.0 mi NW 6.9 mph - N/A   Clear
7:53 PM 78.1 °F - 69.1 °F 74% 29.90 in 10.0 mi NNW 8.1 mph - N/A   Clear
8:53 PM 73.9 °F - 66.0 °F 76% 29.91 in 10.0 mi North 6.9 mph - N/A   Clear
9:53 PM 73.0 °F - 61.0 °F 66% 29.93 in 10.0 mi North 10.4 mph - N/A   Clear
10:53 PM 71.1 °F - 59.0 °F 66% 29.94 in 10.0 mi NNE 6.9 mph - N/A   Scattered Clouds
11:53 PM 68.0 °F - 57.9 °F 70% 29.95 in 10.0 mi North 4.6 mph - N/A   Clear